[[{"header":{"parameterUnit":"m.s-1","parameterCategory":1,"la1":30.2991,"la2":30.254,"lo1":-89.0895,"lo2":-89.0444,"dy":0.0017,"dx":0.0017,"nx":28,"ny":28,"refTime":"2025-07-24T09:00:00:Z","depth":0,"parameterNumber":2,"parameterNumberName":"U-component_of_WINDS"},"data":[0,0,0,0,0,0,0,0,0,0,0,0,0,0,0,0,0,0,0,0,0,0,0,0,0,0,0,0,0,0,0,0,0,0,0,0,0,0,0,0,0,0,0,0,0,0,0,0,0,0,0,0,0,0,0,0,0,0,-4.0849,-4.0849,0,-4.0921,-4.0922,-4.0922,-4.0898,-4.0896,-4.0895,-4.0893,-4.0966,-4.0969,-4.0973,0,0,0,0,0,0,0,0,0,0,0,0,0,-4.0688,-4.0691,-4.0849,-4.085,-4.085,-4.0921,-4.0922,-4.0923,-4.0898,-4.0896,-4.0894,-4.0893,-4.0965,-4.0969,-4.0973,0,0,0,0,0,0,0,0,0,0,0,0,0,-4.0759,-4.0692,-4.0848,-4.0847,-4.0847,-4.092,-4.0922,-4.0923,-4.0899,-4.0896,-4.0894,-4.0892,-4.0964,-4.0969,-4.0974,-4.1052,0,0,-4.0989,-4.0991,0,0,0,0,0,0,0,0,-4.0755,-4.0764,-4.0846,-4.0847,-4.0848,-4.0898,-4.0892,-4.0966,-4.0899,-4.0879,-4.0893,-4.0891,-4.0945,-4.0952,-4.097,-4.1056,-4.1059,-4.099,-4.0993,-4.0995,-4.0996,0,0,0,0,0,0,0,-4.075,-4.0761,-4.0877,-4.0847,-4.0848,-4.0842,-4.0849,-4.0906,-4.0925,-4.0881,-4.0879,-4.0888,-4.0945,-4.0966,-4.0972,-4.106,-4.099,-4.0994,-4.0997,-4.0999,-4.1211,-4.1213,0,0,0,0,0,0,-4.0745,-4.0757,-4.0875,-4.0879,-4.0794,-4.0847,-4.0855,-4.0884,-4.0924,-4.0928,-4.089,-4.0887,-4.0958,-4.0966,-4.0974,-4.1067,-4.0995,-4.1,-4.1003,-4.1208,-4.1211,-4.1214,0,0,0,0,0,0,-4.0741,-4.0755,-4.0872,-4.0818,-4.0832,-4.0852,-4.0885,-4.0887,-4.0907,-4.0931,-4.0934,-4.0907,-4.0956,-4.0967,-4.1033,-4.1069,-4.1002,-4.1007,-4.1205,-4.1209,-4.1212,-4.1253,0,0,0,0,0,0,-4.0737,-4.0754,-4.0785,-4.0819,-4.0835,-4.093,-4.0887,-4.089,-4.0916,-4.0912,-4.0948,-4.0952,-4.0955,-4.1025,-4.1038,-4.1075,-4.1011,-4.1202,-4.1207,-4.1211,-4.1249,-4.1258,-4.1266,0,0,0,0,0,-4.0731,-4.0794,-4.0787,-4.0801,-4.0874,-4.0932,-4.0941,-4.0945,-4.0919,-4.0949,-4.0964,-4.095,-4.1064,-4.1032,-4.1046,-4.1085,-4.1199,-4.1205,-4.1211,-4.1245,-4.1256,-4.1266,0,0,0,0,0,0,-4.0764,-4.0798,-4.0791,-4.0867,-4.0896,-4.0928,-4.0966,-4.0957,-4.0994,-4.0989,-4.0992,-4.1,-4.1067,-4.1083,-4.1047,-4.1162,-4.1127,-4.1136,-4.1149,-4.116,-4.1168,-4.1161,-4.1015,0,0,0,0,0,-4.078,-4.0825,-4.0852,-4.0917,-4.0932,-4.0947,-4.0972,-4.0972,-4.1003,-4.1015,-4.1035,-4.1065,-4.1107,-4.1135,-4.1175,-4.1252,-4.1258,-4.1285,-4.1294,-4.1301,-4.1308,-4.1347,-4.1358,-4.1233,-4.1233,-4.1233,0,0,-4.0814,-4.0838,-4.0866,-4.0924,-4.0947,-4.0992,-4.0957,-4.1007,-4.104,-4.1023,-4.1085,-4.1101,-4.1134,-4.1205,-4.1237,-4.122,-4.1344,-4.1308,-4.1314,-4.1317,-4.1354,-4.1366,-4.1376,-4.1237,-4.1236,-4.1235,0,0,-4.0898,-4.0922,-4.0976,-4.1,-4.1035,-4.1044,-4.1058,-4.109,-4.11,-4.1162,-4.115,-4.1189,-4.1262,-4.1285,-4.1307,-4.1398,-4.1385,-4.1411,-4.1455,-4.1493,-4.1503,-4.1512,-4.1541,-4.1552,-4.1418,-4.1419,-4.1419,0,-4.0935,-4.1002,-4.1006,-4.1056,-4.108,-4.1067,-4.1121,-4.1144,-4.1191,-4.1208,-4.1189,-4.1278,-4.1301,-4.1375,-4.1397,-4.1416,-4.1429,-4.1406,-4.1501,-4.151,-4.1518,-4.1546,-4.1558,-4.1421,-4.1421,-4.1421,-4.142,0,-4.1045,-4.1092,-4.1132,-4.1176,-4.1206,-4.1258,-4.1268,-4.1297,-4.1295,-4.1305,-4.1368,-4.1394,-4.1438,-4.1456,-4.1455,-4.153,-4.1518,-4.1501,-4.1465,-4.1533,-4.1559,-4.157,-4.1425,-4.1424,-4.1423,-4.1423,0,0,-4.1151,-4.1196,-4.121,-4.1229,-4.1266,-4.1302,-4.1353,-4.1396,-4.1419,-4.1452,-4.1493,-4.1555,-4.1538,-4.1563,-4.1564,-4.1597,-4.1664,-4.1575,-4.1576,-4.1588,-4.1745,-4.1756,-4.1768,-4.1657,-4.1659,-4.1661,-4.1741,0,-4.1235,-4.1324,-4.1328,-4.1409,-4.145,-4.1438,-4.1482,-4.1509,-4.152,-4.1557,-4.1569,-4.1611,-4.1588,-4.1602,-4.1635,-4.1649,-4.1695,-4.1644,-4.1693,-4.1694,-4.1682,-4.1783,-4.1795,-4.187,-4.1752,-4.1754,-4.1755,0,-4.1346,-4.138,-4.1465,-4.1494,-4.1512,-4.1551,-4.1589,-4.1625,-4.1655,-4.1661,-4.1687,-4.1683,-4.1733,-4.1698,-4.1766,-4.1731,-4.1752,-4.1761,-4.1764,-4.1767,-4.1727,-4.1785,-4.1894,-4.1904,-4.1772,-4.177,-4.1769,0,-4.1411,-4.1479,-4.1538,-4.1555,-4.1591,-4.1618,-4.1635,-4.1662,-4.1687,-4.172,-4.1736,-4.1775,-4.1796,-4.1826,-4.1832,-4.1806,-4.1899,-4.1865,-4.1903,-4.1902,-4.1921,-4.1919,-4.2031,-4.1939,-4.1939,-4.1939,-4.1938,0,-4.1503,-4.1554,-4.1567,-4.1603,-4.1659,-4.1663,-4.1719,-4.1733,-4.1757,-4.1794,-4.1787,-4.1822,-4.1829,-4.1865,-4.187,-4.1924,-4.1934,-4.1938,-4.1938,-4.1938,-4.1936,-4.1949,-4.1943,-4.1942,-4.1941,-4.194,-4.194,0,-4.1584,-4.1595,-4.1657,-4.1686,-4.1695,-4.1735,-4.1759,-4.1792,-4.1803,-4.185,-4.1861,-4.1877,-4.1919,-4.1928,-4.1978,-4.1981,-4.2044,-4.2041,-4.2034,-4.2032,-4.2069,-4.2064,-4.2191,-4.2206,-4.2106,-4.2107,-4.2108,0,-4.1641,-4.168,-4.1713,-4.1737,-4.1754,-4.1794,-4.1819,-4.1824,-4.185,-4.1885,-4.1914,-4.1955,-4.1988,-4.2055,-4.2071,-4.2108,-4.2104,-4.2146,-4.2109,-4.2106,-4.2101,-4.2097,-4.21,-4.2152,-4.2153,-4.2154,-4.2154,0,-4.174,-4.1743,-4.1779,-4.1817,-4.1846,-4.1876,-4.1904,-4.1925,-4.1933,-4.1963,-4.2005,-4.203,-4.2081,-4.2121,-4.2158,-4.2174,-4.2165,-4.2166,-4.2176,-4.2174,-4.2167,-4.2168,-4.2049,-4.2163,-4.2162,-4.2161,-4.2161,-4.216,-4.1809,-4.1842,-4.1869,-4.1909,-4.1931,-4.1957,-4.1989,-4.2003,-4.2038,-4.2079,-4.208,-4.2126,-4.2152,-4.2202,-4.222,-4.2254,-4.2241,-4.2257,-4.226,-4.2263,-4.2265,-4.2164,-4.2262,-4.2262,-4.2261,-4.2261,-4.2261,0,-4.1905,-4.1922,-4.1958,-4.1997,-4.2028,-4.2018,-4.2048,-4.2074,-4.2114,-4.214,-4.2172,-4.222,-4.2258,-4.2276,-4.2313,-4.2338,-4.2334,-4.2347,-4.2344,-4.2347,-4.2276,-4.2262,-4.2349,-4.2349,-4.2349,-4.2349,-4.2349,-4.2349,-4.1959,-4.2013,-4.2018,-4.2082,-4.2099,-4.2143,-4.2161,-4.2184,-4.2204,-4.2258,-4.2289,-4.2301,-4.2323,-4.2361,-4.2395,-4.24,-4.2412,-4.2427,-4.2429,-4.2361,-4.2352,-4.2344,-4.233,-4.243,-4.243,-4.2496,-4.2497,-4.2497]},{"header":{"parameterUnit":"m.s-1","parameterCategory":1,"la1":30.2991,"la2":30.254,"lo1":-89.0895,"lo2":-89.0444,"dy":0.0017,"dx":0.0017,"nx":28,"ny":28,"refTime":"2025-07-24T09:00:00:Z","depth":0,"parameterNumber":3,"parameterNumberName":"V-component_of_WINDS"},"data":[0,0,0,0,0,0,0,0,0,0,0,0,0,0,0,0,0,0,0,0,0,0,0,0,0,0,0,0,0,0,0,0,0,0,0,0,0,0,0,0,0,0,0,0,0,0,0,0,0,0,0,0,0,0,0,0,0,0,4.6166,4.6168,0,4.6309,4.631,4.6312,4.6283,4.628,4.6278,4.6275,4.642,4.6426,4.6432,0,0,0,0,0,0,0,0,0,0,0,0,0,4.5868,4.5874,4.6166,4.6168,4.617,4.6308,4.631,4.6312,4.6283,4.628,4.6277,4.6274,4.6417,4.6425,4.6432,0,0,0,0,0,0,0,0,0,0,0,0,0,4.6003,4.5876,4.6166,4.6172,4.6174,4.6308,4.631,4.6313,4.6284,4.628,4.6276,4.6272,4.6415,4.6424,4.6433,4.657,0,0,4.6462,4.6466,0,0,0,0,0,0,0,0,4.5995,4.6014,4.6169,4.6172,4.6174,4.6274,4.6258,4.6399,4.6285,4.6242,4.6275,4.6271,4.6374,4.6387,4.6422,4.6577,4.6583,4.6463,4.6469,4.6473,4.6475,0,0,0,0,0,0,0,4.5986,4.6007,4.6223,4.6172,4.6175,4.6167,4.6182,4.6285,4.6328,4.6246,4.6244,4.6261,4.6375,4.6413,4.6425,4.6585,4.6463,4.6471,4.6477,4.6481,4.6858,4.6862,0,0,0,0,0,0,4.5974,4.6,4.6218,4.6227,4.6073,4.6176,4.6192,4.6246,4.6327,4.6336,4.6264,4.6259,4.6399,4.6414,4.643,4.6594,4.6473,4.6482,4.6487,4.6853,4.6859,4.6864,0,0,0,0,0,0,4.5968,4.5994,4.6212,4.6113,4.614,4.6185,4.6246,4.6251,4.6289,4.6341,4.6349,4.6295,4.6396,4.6417,4.6535,4.6599,4.6486,4.6494,4.6848,4.6855,4.6861,4.6924,0,0,0,0,0,0,4.596,4.5992,4.6045,4.6114,4.6146,4.6316,4.625,4.6256,4.6305,4.63,4.6372,4.6381,4.6395,4.6521,4.6545,4.661,4.6502,4.6843,4.6851,4.6859,4.6917,4.6932,4.6945,0,0,0,0,0,4.5949,4.6057,4.6047,4.6074,4.6212,4.6319,4.6337,4.6352,4.6311,4.6364,4.6397,4.6378,4.6589,4.6534,4.656,4.6629,4.6839,4.6849,4.6858,4.691,4.6929,4.6945,0,0,0,0,0,0,4.5993,4.6066,4.6056,4.619,4.6249,4.6314,4.6381,4.6371,4.6443,4.6435,4.6449,4.6466,4.6586,4.6619,4.6557,4.6765,4.6708,4.6723,4.6738,4.6757,4.6771,4.676,4.6509,0,0,0,0,0,4.6018,4.6099,4.6159,4.627,4.6301,4.6336,4.6383,4.6389,4.6451,4.6475,4.6518,4.6577,4.6657,4.6709,4.6785,4.6922,4.6937,4.6982,4.6996,4.7008,4.7021,4.7095,4.7116,4.6896,4.6896,4.6896,0,0,4.6071,4.6121,4.6171,4.628,4.6327,4.641,4.6357,4.6447,4.6509,4.6489,4.6603,4.6636,4.6704,4.6832,4.6891,4.6864,4.7085,4.7021,4.7029,4.7036,4.7107,4.7128,4.7146,4.6903,4.6901,4.69,0,0,4.6209,4.6255,4.6353,4.6401,4.6472,4.6495,4.6518,4.6586,4.6607,4.6722,4.6709,4.6782,4.6919,4.6968,4.701,4.7168,4.7152,4.7192,4.7267,4.7339,4.7356,4.7371,4.7426,4.7446,4.7205,4.7205,4.7205,0,4.6265,4.639,4.6405,4.6497,4.6545,4.6531,4.663,4.6675,4.6767,4.6801,4.6769,4.6941,4.6985,4.7124,4.7163,4.7198,4.7225,4.7183,4.7352,4.7368,4.7383,4.7435,4.7456,4.7209,4.7209,4.7208,4.7208,0,4.6455,4.6542,4.6613,4.6702,4.6759,4.6854,4.6882,4.6937,4.6939,4.6965,4.7082,4.7136,4.7222,4.7256,4.7258,4.7395,4.7376,4.7349,4.7292,4.7407,4.7457,4.7477,4.7215,4.7214,4.7213,4.7212,0,0,4.6624,4.672,4.6746,4.6786,4.6864,4.6931,4.7025,4.711,4.7157,4.7221,4.73,4.7416,4.7391,4.744,4.7448,4.7511,4.7631,4.7476,4.7478,4.7502,4.7785,4.7804,4.7827,4.7622,4.7626,4.763,4.7778,0,4.6768,4.6934,4.695,4.7099,4.7179,4.7168,4.725,4.7306,4.7333,4.7405,4.7435,4.7517,4.7478,4.7507,4.757,4.7603,4.7688,4.7593,4.7695,4.7698,4.7677,4.7853,4.7874,4.8012,4.7798,4.7801,4.7804,0,4.6958,4.7028,4.7185,4.7251,4.7286,4.7359,4.7438,4.7507,4.757,4.7586,4.764,4.764,4.7736,4.7677,4.7809,4.7744,4.7787,4.781,4.7816,4.7825,4.7757,4.7865,4.8056,4.8076,4.7835,4.7832,4.783,0,4.7064,4.7198,4.7309,4.7344,4.7424,4.7475,4.7511,4.7571,4.7621,4.769,4.7722,4.7802,4.7845,4.7906,4.7927,4.7882,4.8059,4.8001,4.8073,4.8073,4.811,4.8107,4.8309,4.814,4.814,4.8139,4.8139,0,4.7223,4.7319,4.7357,4.7425,4.7532,4.755,4.7655,4.7688,4.7742,4.7816,4.7811,4.788,4.7904,4.7978,4.7995,4.8101,4.8121,4.8136,4.8139,4.8136,4.8134,4.8163,4.8153,4.8145,4.8143,4.8142,4.8141,0,4.7358,4.7388,4.7508,4.7574,4.7593,4.7669,4.7725,4.7791,4.7817,4.7911,4.7934,4.7975,4.8062,4.8089,4.8193,4.8204,4.8329,4.8324,4.8307,4.8307,4.8378,4.837,4.8604,4.8635,4.8447,4.8449,4.845,0,4.7457,4.7531,4.7605,4.7654,4.7692,4.7772,4.7822,4.7843,4.7896,4.7974,4.803,4.8115,4.8184,4.8323,4.8362,4.8441,4.8438,4.8514,4.845,4.8444,4.8438,4.8432,4.8439,4.8526,4.8528,4.8529,4.8531,0,4.7629,4.764,4.7713,4.7793,4.7854,4.7917,4.7978,4.8018,4.8047,4.8108,4.8196,4.825,4.8356,4.844,4.8522,4.8558,4.8549,4.8551,4.8572,4.8568,4.8555,4.8562,4.8339,4.8545,4.8544,4.8543,4.8542,4.8541,4.7748,4.7813,4.7875,4.7957,4.8005,4.8062,4.8127,4.8162,4.8236,4.8324,4.8331,4.8426,4.8488,4.8596,4.8636,4.8711,4.8689,4.8719,4.8726,4.8733,4.8738,4.8545,4.8726,4.8725,4.8725,4.8725,4.8724,0,4.7918,4.7958,4.8033,4.8119,4.8183,4.8171,4.8237,4.8292,4.8376,4.8434,4.8503,4.8604,4.8686,4.8732,4.8814,4.8865,4.8863,4.8885,4.8881,4.8889,4.8754,4.8727,4.8885,4.8885,4.8885,4.8885,4.8885,4.8885,4.8014,4.8123,4.8141,4.8273,4.8312,4.8405,4.8444,4.8497,4.8543,4.8657,4.8725,4.8755,4.8808,4.8894,4.8968,4.898,4.901,4.9035,4.9043,4.8916,4.8899,4.8883,4.8858,4.9041,4.9041,4.9173,4.9174,4.9175]}]]